VOZ933 YSSY-YBBN

Flight info

Callsign VOZ933
Flight time N/A
Altitude 33000
Route OLSEM Y193 BANDA H252 GOMOL
Aircraft B38M/M-SADE3GHIJ4J7M3RWZ/LB1D1

Departure

Time 2026-05-05 02:06
Airport Sydney Kingsford Smith International Airport (YSSY)

Arrival

Time N/A
Airport Brisbane International Airport (YBBN)
Time Latitude Longitude Altitude Speed Heading
2026-05-05 01:43 -33.93521 151.17908 14 ft 0 kts 101°
2026-05-05 01:44 -33.93523 151.17919 32 ft 0 kts 101°
2026-05-05 01:44 -33.93522 151.17912 32 ft 0 kts 99°
2026-05-05 01:45 -33.93523 151.17919 32 ft 0 kts 101°
2026-05-05 01:55 -33.93521 151.17909 32 ft 4 kts 99°
2026-05-05 01:56 -33.93517 151.17877 32 ft 4 kts 101°
2026-05-05 01:56 -33.93509 151.17849 32 ft 4 kts 137°
2026-05-05 01:56 -33.93499 151.17844 32 ft 0 kts 190°
2026-05-05 01:56 -33.93522 151.17839 32 ft 4 kts 190°
2026-05-05 01:57 -33.93549 151.17833 32 ft 4 kts 190°
2026-05-05 01:57 -33.93576 151.17828 32 ft 4 kts 190°
2026-05-05 01:57 -33.93602 151.17822 32 ft 3 kts 190°
2026-05-05 01:57 -33.93606 151.17821 32 ft 0 kts 190°
2026-05-05 01:59 -33.93624 151.17817 32 ft 7 kts 191°
2026-05-05 01:59 -33.93717 151.17790 32 ft 19 kts 194°
2026-05-05 01:59 -33.93856 151.17771 32 ft 21 kts 177°
2026-05-05 02:00 -33.94004 151.17806 31 ft 23 kts 168°
2026-05-05 02:00 -33.94166 151.17848 32 ft 24 kts 168°
2026-05-05 02:00 -33.94338 151.17893 32 ft 26 kts 168°
2026-05-05 02:00 -33.94521 151.17884 32 ft 27 kts 178°
2026-05-05 02:01 -33.94712 151.17930 32 ft 29 kts 168°
2026-05-05 02:01 -33.94916 151.17983 32 ft 31 kts 168°
2026-05-05 02:01 -33.95092 151.18066 33 ft 26 kts 117°
2026-05-05 02:01 -33.95068 151.18279 33 ft 28 kts 78°
2026-05-05 02:02 -33.95063 151.18501 33 ft 20 kts 139°
2026-05-05 02:02 -33.95191 151.18627 32 ft 29 kts 138°
2026-05-05 02:02 -33.95409 151.18741 32 ft 40 kts 169°
2026-05-05 02:02 -33.95689 151.18816 32 ft 41 kts 168°
2026-05-05 02:03 -33.95975 151.18890 32 ft 43 kts 168°
2026-05-05 02:03 -33.96238 151.18958 32 ft 38 kts 168°
2026-05-05 02:03 -33.96497 151.19026 32 ft 38 kts 167°
2026-05-05 02:03 -33.96758 151.19067 32 ft 37 kts 187°
2026-05-05 02:04 -33.97013 151.19115 33 ft 38 kts 168°
2026-05-05 02:04 -33.97124 151.19211 32 ft 15 kts 77°
2026-05-05 02:04 -33.97099 151.19345 28 ft 8 kts 72°
2026-05-05 02:04 -33.97093 151.19359 28 ft 2 kts 61°
2026-05-05 02:05 -33.97060 151.19374 28 ft 10 kts 349°
2026-05-05 02:05 -33.96925 151.19338 27 ft 45 kts 347°
2026-05-05 02:05 -33.96327 151.19183 28 ft 127 kts 348°
2026-05-05 02:05 -33.95283 151.18921 146 ft 174 kts 344°
2026-05-05 02:06 -33.94044 151.18666 975 ft 180 kts 353°
2026-05-05 02:06 -33.92801 151.18917 2026 ft 192 kts 22°
2026-05-05 02:06 -33.91697 151.20005 2657 ft 220 kts 51°
2026-05-05 02:06 -33.90774 151.21585 3274 ft 244 kts 45°
2026-05-05 02:07 -33.89300 151.22841 3863 ft 267 kts 30°
2026-05-05 02:07 -33.87725 151.24014 5049 ft 274 kts 31°
2026-05-05 02:07 -33.86079 151.25273 6018 ft 283 kts 34°
2026-05-05 02:07 -33.84675 151.26921 7170 ft 285 kts 54°
2026-05-05 02:08 -33.83849 151.29111 8184 ft 292 kts 73°
2026-05-05 02:08 -33.83286 151.31463 9090 ft 300 kts 71°
2026-05-05 02:08 -33.82610 151.33874 9993 ft 306 kts 61°
2026-05-05 02:08 -33.81394 151.36009 10635 ft 316 kts 47°
2026-05-05 02:09 -33.79971 151.38135 11147 ft 335 kts 47°
2026-05-05 02:09 -33.78478 151.40357 11790 ft 347 kts 47°
2026-05-05 02:09 -33.76959 151.42604 12607 ft 351 kts 47°
2026-05-05 02:09 -33.75404 151.44897 13467 ft 356 kts 47°
2026-05-05 02:10 -33.73826 151.47222 14256 ft 361 kts 47°
2026-05-05 02:10 -33.72228 151.49575 15002 ft 364 kts 47°
2026-05-05 02:10 -33.70614 151.51947 15740 ft 368 kts 47°
2026-05-05 02:10 -33.69000 151.54319 16483 ft 371 kts 47°
2026-05-05 02:11 -33.67357 151.56731 17203 ft 374 kts 47°
2026-05-05 02:11 -33.65697 151.59164 17923 ft 377 kts 46°
2026-05-05 02:11 -33.63753 151.61256 18597 ft 373 kts 29°
2026-05-05 02:11 -33.61635 151.62939 19141 ft 377 kts 30°
2026-05-05 02:12 -33.59465 151.64674 19709 ft 381 kts 29°
2026-05-05 02:12 -33.54992 151.68203 20831 ft 388 kts 28°
2026-05-05 02:12 -33.52722 151.69987 21378 ft 392 kts 28°
2026-05-05 02:13 -33.50425 151.71770 21923 ft 394 kts 25°
2026-05-05 02:13 -33.47921 151.72976 22473 ft 386 kts
2026-05-05 02:13 -33.45316 151.73846 22992 ft 390 kts 10°
2026-05-05 02:13 -33.42686 151.74727 23521 ft 393 kts
2026-05-05 02:14 -33.40033 151.75599 23996 ft 396 kts
2026-05-05 02:14 -33.37367 151.76466 24507 ft 396 kts
2026-05-05 02:14 -33.34735 151.77317 25027 ft 396 kts
2026-05-05 02:14 -33.32064 151.78181 25538 ft 397 kts
2026-05-05 02:15 -33.29400 151.79042 26035 ft 397 kts
2026-05-05 02:15 -33.26722 151.79906 26523 ft 398 kts
2026-05-05 02:15 -33.24076 151.80760 27000 ft 398 kts
2026-05-05 02:15 -33.21393 151.81625 27459 ft 399 kts
2026-05-05 02:16 -33.18703 151.82492 27924 ft 400 kts
2026-05-05 02:16 -33.16005 151.83360 28370 ft 401 kts
2026-05-05 02:16 -33.13308 151.84229 28807 ft 402 kts
2026-05-05 02:16 -33.10603 151.85099 29242 ft 403 kts
2026-05-05 02:17 -33.07891 151.85970 29657 ft 404 kts
2026-05-05 02:17 -33.05203 151.86833 30067 ft 405 kts
2026-05-05 02:17 -33.02478 151.87709 30423 ft 407 kts
2026-05-05 02:17 -32.99720 151.88594 30721 ft 409 kts
2026-05-05 02:18 -32.96966 151.89476 31003 ft 412 kts
2026-05-05 02:18 -32.94181 151.90369 31296 ft 414 kts
2026-05-05 02:18 -32.91426 151.91251 31575 ft 416 kts
2026-05-05 02:18 -32.88616 151.92150 31859 ft 418 kts
2026-05-05 02:19 -32.85797 151.93051 32127 ft 421 kts
2026-05-05 02:19 -32.82962 151.93957 32383 ft 424 kts
2026-05-05 02:19 -32.80100 151.94870 32641 ft 426 kts
2026-05-05 02:19 -32.77225 151.95788 32963 ft 427 kts
2026-05-05 02:20 -32.74337 151.96709 33128 ft 428 kts
2026-05-05 02:20 -32.68672 151.98514 33126 ft 420 kts
2026-05-05 02:21 -32.63022 152.00311 33127 ft 420 kts
2026-05-05 02:21 -32.57364 152.02109 33125 ft 421 kts
2026-05-05 02:22 -32.51726 152.03898 33121 ft 422 kts
2026-05-05 02:22 -32.46045 152.05698 33126 ft 422 kts
2026-05-05 02:23 -32.40356 152.07498 33138 ft 423 kts
2026-05-05 02:23 -32.34690 152.09289 33121 ft 423 kts
2026-05-05 02:24 -32.28971 152.11095 33122 ft 425 kts
2026-05-05 02:24 -32.23283 152.12887 33120 ft 426 kts
2026-05-05 02:25 -32.17541 152.14695 33120 ft 427 kts
2026-05-05 02:25 -32.11783 152.16506 33120 ft 428 kts
2026-05-05 02:26 -32.06055 152.18305 33113 ft 429 kts
2026-05-05 02:26 -32.00266 152.20120 33127 ft 431 kts
2026-05-05 02:27 -31.94486 152.21930 33121 ft 431 kts
2026-05-05 02:27 -31.88674 152.23748 33119 ft 432 kts
2026-05-05 02:28 -31.82849 152.25567 33121 ft 434 kts
2026-05-05 02:28 -31.76993 152.27393 33120 ft 435 kts
2026-05-05 02:29 -31.71158 152.29212 33117 ft 436 kts
2026-05-05 02:29 -31.65266 152.31045 33115 ft 438 kts
2026-05-05 02:30 -31.59396 152.32869 33130 ft 439 kts
2026-05-05 02:30 -31.53481 152.34705 33117 ft 438 kts
2026-05-05 02:31 -31.47611 152.36524 33106 ft 439 kts
2026-05-05 02:31 -31.41702 152.38353 33112 ft 438 kts
2026-05-05 02:32 -31.35793 152.40180 33111 ft 438 kts
2026-05-05 02:32 -31.29941 152.41986 33097 ft 436 kts
2026-05-05 02:33 -31.24058 152.43800 33107 ft 436 kts
2026-05-05 02:33 -31.18232 152.45594 33096 ft 434 kts
2026-05-05 02:34 -31.12376 152.47395 33111 ft 434 kts
2026-05-05 02:34 -31.06562 152.49181 33110 ft 432 kts
2026-05-05 02:35 -31.00754 152.50963 33099 ft 430 kts
2026-05-05 02:35 -30.95948 152.52436 33094 ft 429 kts
2026-05-05 02:36 -30.90169 152.54205 33089 ft 427 kts
2026-05-05 02:36 -30.84452 152.55953 33092 ft 426 kts
2026-05-05 02:37 -30.77797 152.58174 33095 ft 430 kts
2026-05-05 02:37 -30.72078 152.60264 33082 ft 429 kts
2026-05-05 02:38 -30.67330 152.61983 33100 ft 430 kts
2026-05-05 02:38 -30.61618 152.64049 33079 ft 428 kts
2026-05-05 02:39 -30.55937 152.66100 33108 ft 430 kts
2026-05-05 02:39 -30.50214 152.68164 33080 ft 429 kts
2026-05-05 02:40 -30.44494 152.70223 33086 ft 430 kts
2026-05-05 02:40 -30.38813 152.72267 33075 ft 429 kts
2026-05-05 02:41 -30.33103 152.74317 33125 ft 429 kts
2026-05-05 02:41 -30.27378 152.76372 33081 ft 429 kts
2026-05-05 02:42 -30.21697 152.78408 33077 ft 429 kts
2026-05-05 02:42 -30.15982 152.80454 33077 ft 429 kts
2026-05-05 02:43 -30.10300 152.82485 33073 ft 429 kts
2026-05-05 02:43 -30.04582 152.84527 33061 ft 429 kts
2026-05-05 02:44 -29.98858 152.86568 33069 ft 429 kts
2026-05-05 02:44 -29.93166 152.88596 33068 ft 430 kts
2026-05-05 02:45 -29.87439 152.90638 33060 ft 430 kts
2026-05-05 02:45 -29.81763 152.92660 33062 ft 430 kts
2026-05-05 02:46 -29.76029 152.94701 33054 ft 430 kts
2026-05-05 02:46 -29.70318 152.96731 33061 ft 431 kts
2026-05-05 02:47 -29.64571 152.98771 33059 ft 431 kts
2026-05-05 02:47 -29.58818 153.00811 33056 ft 432 kts
2026-05-05 02:48 -29.53100 153.02836 33057 ft 432 kts
2026-05-05 02:48 -29.47335 153.04875 33054 ft 432 kts
2026-05-05 02:49 -29.41610 153.06898 33055 ft 433 kts
2026-05-05 02:49 -29.35849 153.08932 33055 ft 432 kts
2026-05-05 02:50 -29.30075 153.10967 33059 ft 434 kts
2026-05-05 02:50 -29.27203 153.11981 32901 ft 428 kts
2026-05-05 02:50 -29.24402 153.12967 32341 ft 424 kts
2026-05-05 02:50 -29.21568 153.13962 31865 ft 429 kts
2026-05-05 02:51 -29.18701 153.14972 31344 ft 432 kts
2026-05-05 02:51 -29.15832 153.15981 30798 ft 430 kts
2026-05-05 02:51 -29.12989 153.16981 30266 ft 426 kts
2026-05-05 02:51 -29.10165 153.17972 29664 ft 423 kts
2026-05-05 02:52 -29.07357 153.18957 29085 ft 420 kts
2026-05-05 02:52 -29.04570 153.19935 28568 ft 415 kts
2026-05-05 02:52 -29.01815 153.20900 28055 ft 412 kts
2026-05-05 02:52 -28.99118 153.21845 27556 ft 408 kts
2026-05-05 02:53 -28.96409 153.22793 27043 ft 405 kts
2026-05-05 02:53 -28.93719 153.23735 26556 ft 403 kts
2026-05-05 02:53 -28.91041 153.24672 26055 ft 400 kts
2026-05-05 02:53 -28.88376 153.25603 25568 ft 398 kts
2026-05-05 02:54 -28.85760 153.26517 25078 ft 397 kts
2026-05-05 02:54 -28.83119 153.27440 24604 ft 395 kts
2026-05-05 02:54 -28.80482 153.28360 24120 ft 394 kts
2026-05-05 02:54 -28.77863 153.29274 23652 ft 393 kts
2026-05-05 02:55 -28.75283 153.30173 23110 ft 391 kts
2026-05-05 02:55 -28.72684 153.31079 22633 ft 388 kts
2026-05-05 02:55 -28.70104 153.31979 22182 ft 385 kts
2026-05-05 02:55 -28.67543 153.32870 21735 ft 382 kts 10°
2026-05-05 02:56 -28.65006 153.33753 21301 ft 379 kts 10°
2026-05-05 02:56 -28.62519 153.34618 20878 ft 377 kts 11°
2026-05-05 02:56 -28.60011 153.35489 20438 ft 373 kts 11°
2026-05-05 02:56 -28.57532 153.36351 20041 ft 370 kts 11°
2026-05-05 02:57 -28.55075 153.37204 19640 ft 367 kts 12°
2026-05-05 02:57 -28.52639 153.38049 19236 ft 365 kts 12°
2026-05-05 02:57 -28.50236 153.38883 18839 ft 363 kts 12°
2026-05-05 02:57 -28.47816 153.39723 18449 ft 362 kts 13°
2026-05-05 02:58 -28.45408 153.40557 17995 ft 360 kts 13°
2026-05-05 02:58 -28.43015 153.41385 17591 ft 357 kts 13°
2026-05-05 02:58 -28.40674 153.42196 17199 ft 354 kts 13°
2026-05-05 02:58 -28.38319 153.43011 16814 ft 352 kts 14°
2026-05-05 02:59 -28.35988 153.43818 16439 ft 349 kts 14°
2026-05-05 02:59 -28.33670 153.44619 16058 ft 346 kts 14°
2026-05-05 02:59 -28.31363 153.45417 15681 ft 344 kts 14°
2026-05-05 02:59 -28.29073 153.46208 15305 ft 342 kts 14°
2026-05-05 03:00 -28.26823 153.46985 14940 ft 341 kts 14°
2026-05-05 03:00 -28.24551 153.47769 14567 ft 339 kts 15°
2026-05-05 03:00 -28.22300 153.48546 14199 ft 337 kts 15°
2026-05-05 03:00 -28.20084 153.49310 13826 ft 336 kts 15°
2026-05-05 03:01 -28.17811 153.49931 13316 ft 335 kts
2026-05-05 03:01 -28.15507 153.49656 12837 ft 333 kts 342°
2026-05-05 03:01 -28.13321 153.48821 12493 ft 329 kts 340°
2026-05-05 03:01 -28.11166 153.47964 12118 ft 328 kts 339°
2026-05-05 03:02 -28.09022 153.47094 11751 ft 325 kts 339°
2026-05-05 03:02 -28.06922 153.46230 11378 ft 323 kts 339°
2026-05-05 03:02 -28.04796 153.45350 11020 ft 325 kts 339°
2026-05-05 03:02 -28.02670 153.44466 10784 ft 322 kts 339°
2026-05-05 03:03 -28.00588 153.43599 10640 ft 313 kts 339°
2026-05-05 03:03 -27.98595 153.42769 10487 ft 305 kts 339°
2026-05-05 03:03 -27.96628 153.41949 10344 ft 297 kts 339°
2026-05-05 03:03 -27.94710 153.41151 10200 ft 289 kts 339°
2026-05-05 03:04 -27.92845 153.40374 10059 ft 281 kts 339°
2026-05-05 03:04 -27.91010 153.39610 9778 ft 280 kts 339°
2026-05-05 03:04 -27.89184 153.38850 9440 ft 279 kts 339°
2026-05-05 03:04 -27.87363 153.38093 9133 ft 278 kts 339°
2026-05-05 03:05 -27.85577 153.37351 8841 ft 276 kts 339°
2026-05-05 03:05 -27.83876 153.36643 8562 ft 275 kts 339°
2026-05-05 03:07 -27.82679 153.36147 8349 ft 274 kts 339°
2026-05-05 03:07 -27.80886 153.35402 8026 ft 274 kts 339°
2026-05-05 03:07 -27.79098 153.34660 7733 ft 273 kts 339°
2026-05-05 03:08 -27.77318 153.33921 7444 ft 271 kts 339°
2026-05-05 03:08 -27.75615 153.33022 7130 ft 270 kts 325°
2026-05-05 03:08 -27.74100 153.31773 6837 ft 269 kts 323°
2026-05-05 03:08 -27.72591 153.30525 6550 ft 268 kts 323°
2026-05-05 03:09 -27.71092 153.29289 6334 ft 264 kts 323°
2026-05-05 03:09 -27.69628 153.28086 6193 ft 256 kts 323°
2026-05-05 03:09 -27.68207 153.26919 6054 ft 248 kts 323°
2026-05-05 03:09 -27.66848 153.25792 5847 ft 244 kts 322°
2026-05-05 03:10 -27.65484 153.24653 5554 ft 243 kts 323°
2026-05-05 03:10 -27.64122 153.23519 5267 ft 243 kts 322°
2026-05-05 03:10 -27.62770 153.22392 4971 ft 239 kts 323°
2026-05-05 03:10 -27.61440 153.21303 4656 ft 233 kts 324°
2026-05-05 03:11 -27.60129 153.20259 4327 ft 227 kts 324°
2026-05-05 03:11 -27.58855 153.19242 4049 ft 220 kts 324°
2026-05-05 03:11 -27.57645 153.18276 3812 ft 210 kts 324°
2026-05-05 03:11 -27.56506 153.17313 3613 ft 201 kts 321°
2026-05-05 03:12 -27.55398 153.16353 3331 ft 200 kts 322°
2026-05-05 03:12 -27.54294 153.15401 3065 ft 198 kts 322°
2026-05-05 03:12 -27.53208 153.14454 2952 ft 197 kts 322°
2026-05-05 03:12 -27.52133 153.13518 2950 ft 198 kts 322°
2026-05-05 03:13 -27.51039 153.12566 2751 ft 197 kts 322°
2026-05-05 03:13 -27.49978 153.11644 2351 ft 185 kts 322°
2026-05-05 03:13 -27.48991 153.10794 1956 ft 172 kts 324°
2026-05-05 03:13 -27.48016 153.10124 1619 ft 160 kts 334°
2026-05-05 03:14 -27.46995 153.09682 1346 ft 158 kts 344°
2026-05-05 03:14 -27.45915 153.09465 1136 ft 158 kts 356°
2026-05-05 03:14 -27.44815 153.09499 945 ft 158 kts
2026-05-05 03:14 -27.43752 153.09789 755 ft 157 kts 20°
2026-05-05 03:15 -27.42772 153.10334 538 ft 164 kts 33°
2026-05-05 03:15 -27.41808 153.10950 330 ft 150 kts 28°
2026-05-05 03:15 -27.40841 153.11501 188 ft 161 kts 29°
2026-05-05 03:15 -27.39868 153.12055 30 ft 146 kts 28°
2026-05-05 03:16 -27.39162 153.12462 24 ft 78 kts 27°
2026-05-05 03:16 -27.38750 153.12656 23 ft 57 kts 10°